Stations météo

réclame
Mon MeteoGroup
Cap Corse, France (7785): Température de l'air & dewpoint: 17.09.2017 22:00:00 - 23.09.2017 22:00:00 (CEST)Cap Corse, France (7785): Vitesse du vent & gusts: 17.09.2017 22:00:00 - 23.09.2017 22:00:00 (CEST)Cap Corse, France (7785): Direction du vent: 17.09.2017 22:00:00 - 23.09.2017 22:00:00 (CEST)Cap Corse, France (7785): reduced air pressure: 17.09.2017 22:00:00 - 23.09.2017 22:00:00 (CEST)Cap Corse, France (7785): visibility: 17.09.2017 22:00:00 - 23.09.2017 22:00:00 (CEST)Cap Corse, France (7785): Quantités de précipitations: 17.09.2017 22:00:00 - 23.09.2017 22:00:00 (CEST)
Date & Time tt [°C] td [°C] ff [km/h] ff [knt] fx [km/h] fx [knt] dd ppp [hPa] vv [km] rr [mm]
23.09.2017 22:00:00 - - - - - - - - - -
23.09.2017 21:00:00 18,0 13,3 4 2 13 7 W 1020,2 - 0,0
23.09.2017 20:00:00 18,8 14,3 5 3 13 7 SSW 1020,1 18 0,0
23.09.2017 19:00:00 20,2 13,2 5 3 19 10 WNW 1020,3 - 0,0
23.09.2017 18:00:00 22,1 14,5 15 8 24 13 W 1020,1 - 0,0
23.09.2017 17:00:00 23,0 12,6 11 6 16 9 W 1020,1 20 0,0
23.09.2017 16:00:00 23,4 10,8 9 5 16 8 NW 1020,3 - 0,0
23.09.2017 15:00:00 23,5 13,4 8 4 15 8 NNW 1020,8 - 0,0
23.09.2017 14:00:00 23,2 14,2 7 4 14 7 WNW 1021,2 20 0,0
23.09.2017 13:00:00 22,6 14,4 10 6 13 7 WNW 1021,4 - 0,0
23.09.2017 12:00:00 22,4 15,3 5 3 15 8 NW 1021,6 - 0,0
23.09.2017 11:00:00 22,4 15,0 13 7 21 11 W 1021,4 20 0,0
23.09.2017 10:00:00 21,7 12,8 5 3 16 8 SW 1021,4 - 0,0
23.09.2017 09:00:00 19,8 13,9 8 5 14 8 WSW 1021,4 - 0,0
23.09.2017 08:00:00 17,9 14,6 7 4 10 5 W 1021,0 15 0,0
23.09.2017 07:00:00 16,7 14,0 10 5 14 7 SE 1021,1 - 0,0
23.09.2017 06:00:00 16,9 14,0 6 3 8 5 ESE 1021,1 - 0,0
23.09.2017 05:00:00 17,3 14,2 3 2 10 6 E 1021,2 - 0,0
23.09.2017 04:00:00 17,5 13,6 9 5 11 6 WSW 1021,7 - 0,0
23.09.2017 03:00:00 17,1 11,6 3 2 7 4 WNW 1021,9 - 0,0
23.09.2017 02:00:00 17,2 11,9 2 1 9 5 E 1022,1 - 0,0
23.09.2017 01:00:00 17,6 12,5 9 5 12 6 ESE 1021,8 - 0,0
23.09.2017 00:00:00 18,1 11,9 3 1 17 9 SE 1022,2 - 0,0
22.09.2017 23:00:00 18,0 11,8 13 7 16 9 SW 1022,2 - 0,0
22.09.2017 22:00:00 17,9 13,4 0 0 5 3 N 1021,9 - 0,0
22.09.2017 21:00:00 18,3 13,6 4 2 8 5 ESE 1021,8 - 0,0
22.09.2017 20:00:00 18,9 14,0 7 4 11 6 SSW 1021,4 - 0,0
22.09.2017 19:00:00 21,0 14,4 3 1 21 12 WNW 1021,2 - 0,0
22.09.2017 18:00:00 22,0 14,6 13 7 22 12 SE 1021,0 - 0,0
22.09.2017 17:00:00 21,6 14,7 15 8 30 16 SE 1020,8 - 0,0
22.09.2017 16:00:00 21,5 14,6 20 11 32 18 ESE 1020,9 - 0,0
22.09.2017 15:00:00 22,5 14,1 15 8 29 16 ESE 1021,1 - 0,0
22.09.2017 14:00:00 21,3 13,7 4 2 12 6 SW 1021,5 20 0,0
22.09.2017 13:00:00 22,1 14,2 8 5 16 9 W 1021,7 - 0,0
22.09.2017 12:00:00 21,1 13,5 11 6 16 9 W 1021,6 - 0,0
22.09.2017 11:00:00 21,8 14,2 11 6 21 11 W 1021,6 18 0,0
22.09.2017 10:00:00 21,6 13,5 5 3 27 15 NE 1021,4 - 0,0
22.09.2017 09:00:00 20,1 13,8 15 8 24 13 ESE 1020,8 - 0,0
22.09.2017 08:00:00 18,3 13,6 18 10 24 13 SE 1020,5 30 0,0
22.09.2017 07:00:00 16,3 12,8 16 9 21 11 SSE 1020,5 - 0,0
22.09.2017 06:00:00 16,0 12,9 5 3 10 6 SSE 1020,5 - 0,0
22.09.2017 05:00:00 16,2 13,1 6 3 11 6 SW 1020,6 15 0,0
22.09.2017 04:00:00 16,2 12,9 9 5 12 6 SW 1020,6 - 0,0
22.09.2017 03:00:00 16,4 12,9 8 4 12 6 SW 1020,9 - 0,0
22.09.2017 02:00:00 16,7 13,0 8 5 17 9 WSW 1021,0 - 0,0
22.09.2017 01:00:00 17,5 13,4 10 5 19 10 WSW 1020,7 - 0,0
22.09.2017 00:00:00 18,3 13,8 12 6 20 11 WSW 1020,5 - 0,0
21.09.2017 23:00:00 18,6 13,7 11 6 31 17 WSW 1020,4 - 0,0
21.09.2017 22:00:00 18,6 12,8 22 12 36 20 WSW 1020,3 - 0,0
21.09.2017 21:00:00 18,4 11,9 20 11 31 17 W 1020,0 - 0,0
21.09.2017 20:00:00 18,9 13,5 21 11 37 20 W 1019,7 - 0,0
21.09.2017 19:00:00 20,5 13,9 19 10 32 17 W 1019,6 - 0,0
21.09.2017 18:00:00 21,8 12,1 12 6 31 17 WSW 1019,4 - 0,0
21.09.2017 17:00:00 21,7 11,4 18 10 32 17 SE 1019,5 20 0,0
21.09.2017 16:00:00 22,3 11,7 22 12 40 22 E 1019,3 - 0,0
21.09.2017 15:00:00 21,6 11,9 25 14 37 20 E 1019,4 - 0,0
21.09.2017 14:00:00 21,7 12,0 22 12 41 22 E 1019,7 - 0,0
21.09.2017 13:00:00 21,7 9,9 9 5 20 11 NE 1020,1 - 0,0
21.09.2017 12:00:00 19,5 12,5 12 7 19 11 W 1020,4 - 0,0
21.09.2017 11:00:00 19,9 12,2 9 5 19 11 WSW 1020,2 30 0,0
21.09.2017 10:00:00 21,4 13,8 11 6 18 10 E 1019,9 - 0,0
21.09.2017 09:00:00 20,3 13,0 11 6 21 12 ESE 1019,3 - 0,0
21.09.2017 08:00:00 18,3 12,9 13 7 21 11 ESE 1019,1 25 0,0
21.09.2017 07:00:00 16,1 11,9 17 9 21 11 ESE 1019,0 - 0,0
21.09.2017 06:00:00 15,8 11,2 16 9 20 11 ESE 1019,0 - 0,0
21.09.2017 05:00:00 16,0 10,7 10 6 18 10 E 1019,2 18 0,0
21.09.2017 04:00:00 15,8 11,6 11 6 20 11 E 1019,0 - 0,0
21.09.2017 03:00:00 15,8 12,7 7 4 9 5 ESE 1019,2 - 0,0
21.09.2017 02:00:00 15,6 11,8 5 3 17 9 W 1019,4 - 0,0
21.09.2017 01:00:00 16,9 12,4 12 6 39 21 SW 1018,9 - 0,0
21.09.2017 00:00:00 18,0 13,3 20 11 45 24 WSW 1018,2 - 0,0
20.09.2017 23:00:00 18,4 12,2 22 12 40 22 WSW 1018,3 - 0,0
20.09.2017 22:00:00 18,3 10,9 21 12 34 18 WSW 1018,2 - 0,0
20.09.2017 21:00:00 18,2 11,0 19 10 29 16 W 1018,0 - 0,0
20.09.2017 20:00:00 18,1 10,0 18 10 29 15 W 1017,3 20 0,0
20.09.2017 19:00:00 19,8 9,9 21 11 31 17 W 1017,0 - 0,0
20.09.2017 18:00:00 21,2 9,4 22 12 30 16 W 1016,9 - 0,0
20.09.2017 17:00:00 21,7 11,1 21 11 32 17 W 1016,9 20 0,0
20.09.2017 16:00:00 22,0 10,8 19 11 36 19 W 1016,9 - 0,0
20.09.2017 15:00:00 22,2 11,9 23 12 35 19 W 1017,1 - 0,0
20.09.2017 14:00:00 22,3 12,5 24 13 34 18 W 1016,8 20 0,0
20.09.2017 13:00:00 22,4 9,2 18 10 33 18 W 1016,9 - 0,0
20.09.2017 12:00:00 22,0 10,2 16 9 25 14 W 1016,9 - 0,0
20.09.2017 11:00:00 21,3 9,2 15 8 21 11 W 1016,5 20 0,0
20.09.2017 10:00:00 20,8 8,8 7 4 12 6 W 1016,1 - 0,0
20.09.2017 09:00:00 20,4 8,7 5 3 19 10 E 1015,5 - 0,0
20.09.2017 08:00:00 18,0 12,2 11 6 16 9 ESE 1015,1 20 0,0
20.09.2017 07:00:00 16,8 12,1 5 3 24 13 SE 1014,8 - 0,0
20.09.2017 06:00:00 18,0 12,2 22 12 41 22 N 1014,3 - 0,0
20.09.2017 05:00:00 18,7 10,8 30 16 51 28 NW 1013,7 18 0,0
20.09.2017 04:00:00 18,6 11,7 41 22 60 33 W 1013,2 - 0,0
20.09.2017 03:00:00 17,7 11,0 31 17 56 30 WSW 1013,2 - 0,0
20.09.2017 02:00:00 16,9 10,0 26 14 49 27 WSW 1013,6 - 0,0
20.09.2017 01:00:00 17,3 10,7 23 12 42 23 WSW 1013,7 - 0,0
20.09.2017 00:00:00 16,6 10,2 14 8 31 17 W 1013,9 - 0,0
19.09.2017 23:00:00 17,1 10,0 22 12 35 19 WSW 1013,9 - 0,0
19.09.2017 22:00:00 17,7 9,6 23 12 34 18 W 1013,5 - 0,0
19.09.2017 21:00:00 17,9 8,2 23 12 58 31 W 1013,2 - 0,0
19.09.2017 20:00:00 17,8 8,4 28 15 64 34 W 1011,8 - 0,0
19.09.2017 19:00:00 17,9 8,5 39 21 91 49 WSW 1011,5 - 0,0
19.09.2017 18:00:00 17,7 9,8 39 21 64 35 WSW 1011,3 - 0,0
19.09.2017 17:00:00 18,0 10,6 35 19 61 33 W 1011,4 20 0,0
19.09.2017 16:00:00 18,5 12,7 41 22 53 29 W 1011,2 - 0,0
19.09.2017 15:00:00 20,0 13,5 35 19 48 26 W 1011,5 - 0,0
19.09.2017 14:00:00 20,3 12,5 27 14 37 20 W 1012,0 20 0,0
19.09.2017 13:00:00 20,9 10,7 16 9 29 16 W 1012,2 - 0,0
19.09.2017 12:00:00 20,4 10,8 19 10 37 20 W 1012,7 - 0,0
19.09.2017 11:00:00 19,7 10,9 24 13 39 21 WNW 1012,5 20 0,0
19.09.2017 10:00:00 18,5 10,6 28 15 39 21 W 1012,2 - 0,0
19.09.2017 09:00:00 17,1 10,9 25 14 35 19 W 1012,3 - 0,0
19.09.2017 08:00:00 15,0 11,0 23 13 33 18 W 1012,2 15 0,0
19.09.2017 07:00:00 13,6 10,0 20 11 30 16 WSW 1012,0 - 0,0
19.09.2017 06:00:00 13,6 10,6 5 3 23 13 SSW 1012,1 - 0,0
19.09.2017 05:00:00 14,1 11,1 21 11 43 23 NE 1012,4 6 0,0
19.09.2017 04:00:00 14,0 12,0 23 12 75 40 E 1012,6 - -
19.09.2017 03:00:00 17,2 12,9 49 26 71 38 W 1011,3 - 0,0
19.09.2017 02:00:00 15,9 11,9 45 25 73 40 W 1012,0 - 0,8
19.09.2017 01:00:00 15,7 12,6 24 13 46 25 WSW 1012,7 - 0,0
19.09.2017 00:00:00 14,8 11,2 24 13 36 20 WSW 1013,8 - 0,0
18.09.2017 23:00:00 13,9 11,4 19 10 31 17 WSW 1014,5 - 2,8
18.09.2017 22:00:00 15,1 13,1 21 11 30 16 W 1014,7 - 1,0
18.09.2017 21:00:00 14,7 12,2 6 3 25 14 W 1014,5 - 2,0
18.09.2017 20:00:00 15,5 13,5 14 8 42 23 SSW 1014,6 2,0 2,9
18.09.2017 19:00:00 15,7 13,4 17 9 35 19 SW 1014,6 - 2,2
18.09.2017 18:00:00 16,5 13,2 16 9 46 25 WSW 1015,0 - 1,0
18.09.2017 17:00:00 17,0 13,9 39 21 65 35 W 1015,1 12 0,4
18.09.2017 16:00:00 18,9 16,5 45 24 63 34 W 1014,7 - 0,6
18.09.2017 15:00:00 20,9 15,4 34 18 53 29 W 1014,9 - 0,0
18.09.2017 14:00:00 21,6 13,2 42 23 58 31 W 1015,4 15 0,0
18.09.2017 13:00:00 22,9 11,6 40 21 67 36 W 1015,6 - 0,0
18.09.2017 12:00:00 22,2 11,3 43 23 69 38 W 1015,5 - 0,0
18.09.2017 11:00:00 21,7 11,1 39 21 75 41 W 1015,5 15 0,0
18.09.2017 10:00:00 20,7 9,6 46 25 84 45 WSW 1015,2 - 0,0
18.09.2017 09:00:00 20,5 8,8 40 21 82 44 WSW 1015,3 - 0,0
18.09.2017 08:00:00 20,3 8,3 44 24 93 50 WSW 1014,9 15 0,0
18.09.2017 07:00:00 19,5 9,4 44 24 104 56 WSW 1014,7 - 0,0
18.09.2017 06:00:00 19,1 11,9 60 32 103 56 WSW 1014,6 - 0,0
18.09.2017 05:00:00 19,2 10,7 64 35 109 59 W 1014,0 15 0,0
18.09.2017 04:00:00 18,9 11,5 61 33 116 63 W 1014,4 - 0,0
18.09.2017 03:00:00 18,9 11,9 66 36 111 60 W 1014,4 - 0,0
18.09.2017 02:00:00 18,8 12,1 74 40 116 62 W 1015,0 - 0,0
18.09.2017 01:00:00 18,7 11,7 79 42 127 69 W 1014,8 - 0,0
18.09.2017 00:00:00 18,7 11,5 76 41 126 68 W 1015,0 - 0,0
17.09.2017 23:00:00 18,7 10,8 74 40 141 76 W 1015,1 - 0,0
17.09.2017 22:00:00 18,6 10,7 78 42 130 70 W 1014,7 - 0,0

tt = Température de l'air
td = dewpoint
ff = Vitesse du vent
fx = gusts
dd = Direction du vent
ppp = reduced air pressure
vv = visibility
rr = Quantités de précipitations

stations d'obs. à proximité